Le nostre stazioni meteo in Italia

Pubblicità
Il mio iltempo24.it
Falconara, Italia (16191): Temperatura & dewpoint: 03.07.2020 22:00:00 - 09.07.2020 22:00:00 (CEST)Falconara, Italia (16191): velocità del vento: 03.07.2020 22:00:00 - 09.07.2020 22:00:00 (CEST)Falconara, Italia (16191): direzione del vento: 03.07.2020 22:00:00 - 09.07.2020 22:00:00 (CEST)Falconara, Italia (16191): reduced air pressure: 03.07.2020 22:00:00 - 09.07.2020 22:00:00 (CEST)Falconara, Italia (16191): visibility: 03.07.2020 22:00:00 - 09.07.2020 22:00:00 (CEST)Falconara, Italia (16191): precipitazioni: 03.07.2020 22:00:00 - 09.07.2020 22:00:00 (CEST)
Data & Tempo tt [°C] td [°C] ff [km/h] ff [kn] dd ppp [hPa] vv [km] rr [mm]
09.07.2020 22:00:00 24,0 12,0 4 2 - - 10 -
09.07.2020 21:00:00 26,0 13,0 5 3 SSE - 10 -
09.07.2020 20:00:00 26,3 15,6 9 5 NE 1015,4 10 -
09.07.2020 19:00:00 27,0 14,0 13 7 NE - 10 -
09.07.2020 18:00:00 27,0 15,0 13 7 NE - 10 -
09.07.2020 17:00:00 26,9 14,4 15 8 NE 1016,6 10 0,0
09.07.2020 16:00:00 27,0 15,0 16 9 ENE - 10 -
09.07.2020 15:00:00 27,0 13,0 15 8 NE - 10 -
09.07.2020 14:00:00 26,8 14,9 15 8 NE 1017,6 10 -
09.07.2020 13:00:00 26,0 17,0 16 9 NNE - 10 -
09.07.2020 12:00:00 27,0 14,0 15 8 NNE - 10 -
09.07.2020 11:00:00 26,1 15,1 13 7 N 1017,9 10 0,0
09.07.2020 10:00:00 26,0 14,0 5 3 - - 10 -
09.07.2020 09:00:00 24,0 15,0 4 2 - - 10 -
09.07.2020 08:00:00 22,0 15,4 5 3 SSO 1017,7 10 -
09.07.2020 07:00:00 - - - - - - - -
09.07.2020 06:00:00 16,0 13,0 5 3 SSO - 10 -
09.07.2020 05:00:00 16,5 13,4 8 4 SSO 1017,2 10 0,0
09.07.2020 04:00:00 17,0 13,0 5 3 S - 10 -
09.07.2020 03:00:00 17,0 13,0 5 3 S - 10 -
09.07.2020 02:00:00 17,3 13,3 5 3 S 1016,8 - -
09.07.2020 01:00:00 17,0 13,0 5 3 SSO - 10 -
09.07.2020 00:00:00 19,0 13,0 5 3 S - 10 -
08.07.2020 23:00:00 19,8 13,2 5 3 S 1017,0 10 0,0
08.07.2020 22:00:00 22,0 11,0 4 2 S - 10 -
08.07.2020 21:00:00 - - - - - - - -
08.07.2020 20:00:00 24,2 10,3 9 5 ENE 1016,0 10 -
08.07.2020 19:00:00 25,0 12,0 9 5 NE - 10 -
08.07.2020 18:00:00 25,0 13,0 11 6 NE - 10 -
08.07.2020 17:00:00 25,0 11,4 13 7 NE 1016,9 10 0,0
08.07.2020 16:00:00 25,0 12,0 16 9 NE - 10 -
08.07.2020 15:00:00 26,0 11,0 16 9 NE - 10 -
08.07.2020 14:00:00 25,1 11,1 18 10 NE 1017,6 10 -
08.07.2020 13:00:00 25,0 12,0 16 9 NE - 10 -
08.07.2020 12:00:00 25,0 10,0 15 8 NE - 10 -
08.07.2020 11:00:00 24,9 12,2 8 4 NNE 1018,0 10 0,0
08.07.2020 10:00:00 24,0 13,0 8 4 N - 10 -
08.07.2020 09:00:00 22,0 14,0 5 3 OSO - 10 -
08.07.2020 08:00:00 20,4 14,0 8 4 S 1017,6 10 -
08.07.2020 07:00:00 16,0 13,0 8 4 S - 10 -
08.07.2020 06:00:00 14,0 12,0 5 3 SSO - 10 -
08.07.2020 05:00:00 14,8 12,0 5 3 S 1017,2 10 0,0
08.07.2020 04:00:00 16,0 12,0 5 3 S - 10 -
08.07.2020 03:00:00 16,0 12,0 8 4 S - 10 -
08.07.2020 02:00:00 16,5 11,9 5 3 S 1017,1 10 -
08.07.2020 01:00:00 17,0 12,0 5 3 S - 10 -
08.07.2020 00:00:00 18,0 12,0 5 3 S - 10 -
07.07.2020 23:00:00 19,5 11,3 5 3 S 1016,7 10 0,0
07.07.2020 22:00:00 22,0 10,0 11 6 NNO - 10 -
07.07.2020 21:00:00 22,0 11,0 9 5 N - 10 -
07.07.2020 20:00:00 23,3 10,8 11 6 N 1015,9 10 -
07.07.2020 19:00:00 24,0 12,0 15 8 N - 10 -
07.07.2020 18:00:00 24,0 14,0 15 8 N - 10 -
07.07.2020 17:00:00 24,4 14,1 13 7 N 1015,7 10 0,0
07.07.2020 16:00:00 24,0 14,0 15 8 N - 10 -
07.07.2020 15:00:00 25,0 14,0 16 9 N - 10 -
07.07.2020 14:00:00 25,1 11,9 15 8 N 1015,7 10 -
07.07.2020 13:00:00 25,0 10,0 9 5 - - 10 -
07.07.2020 12:00:00 24,0 14,0 8 4 - - 10 -
07.07.2020 11:00:00 22,6 15,8 8 4 ENE 1016,0 10 0,0
07.07.2020 10:00:00 22,0 13,0 16 9 E - 10 -
07.07.2020 09:00:00 22,0 14,0 26 14 NE - 10 -
07.07.2020 08:00:00 22,7 15,1 26 14 NE 1013,3 10 -
07.07.2020 07:00:00 23,0 16,0 22 12 ENE - 10 -
07.07.2020 06:00:00 24,0 19,0 29 16 ENE - 10 -
07.07.2020 05:00:00 18,4 16,8 5 3 O 1009,0 10 0,0
07.07.2020 04:00:00 19,0 16,0 5 3 S - 10 -
07.07.2020 03:00:00 19,0 16,0 8 4 S - 10 -
07.07.2020 02:00:00 19,4 15,7 4 2 S 1007,0 10 -
07.07.2020 01:00:00 20,0 16,0 8 4 S - 10 -
07.07.2020 00:00:00 21,0 16,0 5 3 S - 10 -
06.07.2020 23:00:00 21,5 16,8 5 3 SSO 1006,6 10 0,0
06.07.2020 22:00:00 24,0 16,0 5 3 SSE - 10 -
06.07.2020 21:00:00 25,0 17,0 2 1 ONO - 10 -
06.07.2020 20:00:00 27,4 16,9 5 3 N 1006,3 10 -
06.07.2020 19:00:00 28,0 16,0 9 5 NE - 10 -
06.07.2020 18:00:00 28,0 20,0 13 7 NNE - 10 -
06.07.2020 17:00:00 27,9 19,9 15 8 NE 1007,7 10 0,0
06.07.2020 16:00:00 29,0 17,0 15 8 NNE - 10 -
06.07.2020 15:00:00 28,0 19,0 16 9 NNE - 10 -
06.07.2020 14:00:00 28,1 18,9 16 9 N 1009,4 10 -
06.07.2020 13:00:00 28,0 21,0 18 10 N - 10 -
06.07.2020 12:00:00 28,0 20,0 18 10 N - 10 -
06.07.2020 11:00:00 27,4 21,1 18 10 NNO 1010,8 10 0,0
06.07.2020 10:00:00 27,0 19,0 21 11 NNO - 10 -
06.07.2020 09:00:00 27,0 14,0 5 3 - - 10 -
06.07.2020 08:00:00 23,4 11,7 5 3 SSO 1011,0 10 -
06.07.2020 07:00:00 20,0 14,0 5 3 SSO - 10 -
06.07.2020 06:00:00 18,0 13,0 5 3 SSO - 10 -
06.07.2020 05:00:00 18,3 13,3 5 3 SSO 1011,3 10 0,0
06.07.2020 04:00:00 18,0 14,0 5 3 S - 10 -
06.07.2020 03:00:00 19,0 15,0 5 3 SSO - 10 -
06.07.2020 02:00:00 18,5 15,0 8 4 SSO 1013,2 10 -
06.07.2020 01:00:00 20,0 16,0 5 3 S - 10 -
06.07.2020 00:00:00 20,0 16,0 5 3 SSO - 10 -
05.07.2020 23:00:00 21,4 17,0 5 3 S 1013,9 10 0,0
05.07.2020 22:00:00 24,0 17,0 2 1 - - 10 -
05.07.2020 21:00:00 24,0 17,0 8 4 NNO - 10 -
05.07.2020 20:00:00 26,1 16,8 13 7 N 1013,3 10 -
05.07.2020 19:00:00 27,0 15,0 15 8 N - 10 -
05.07.2020 18:00:00 27,0 14,0 16 9 N - 10 -
05.07.2020 17:00:00 27,5 13,2 18 10 N 1014,9 10 0,0
05.07.2020 16:00:00 28,0 13,0 18 10 N - 10 -
05.07.2020 15:00:00 28,0 14,0 18 10 N - 10 -
05.07.2020 14:00:00 27,5 14,7 18 10 N 1015,9 10 -
05.07.2020 13:00:00 27,0 15,0 15 8 N - 10 -
05.07.2020 12:00:00 27,0 15,0 15 8 N - 10 -
05.07.2020 11:00:00 26,7 15,8 16 9 N 1016,6 10 0,0
05.07.2020 10:00:00 27,0 15,0 16 9 NNE - 10 -
05.07.2020 09:00:00 26,0 13,0 21 11 NNE - 10 -
05.07.2020 08:00:00 24,9 14,8 9 5 N 1016,1 - -
05.07.2020 07:00:00 20,0 15,0 4 2 - - 10 -
05.07.2020 06:00:00 18,0 14,0 8 4 S - 10 -
05.07.2020 05:00:00 17,8 13,9 5 3 SSE 1015,7 10 0,0
05.07.2020 04:00:00 18,0 14,0 5 3 SSO - 10 -
05.07.2020 03:00:00 19,0 14,0 5 3 S - 10 -
05.07.2020 02:00:00 18,9 14,4 5 3 S 1016,3 10 -
05.07.2020 01:00:00 19,0 15,0 5 3 SSO - 10 -
05.07.2020 00:00:00 - - - - - - - -
04.07.2020 23:00:00 21,3 15,8 2 1 - 1016,1 10 0,0
04.07.2020 22:00:00 23,0 15,0 5 3 OSO - 10 -
04.07.2020 21:00:00 24,0 15,0 9 5 NO - 10 -
04.07.2020 20:00:00 25,4 13,8 13 7 NNO 1015,1 10 -
04.07.2020 19:00:00 26,0 14,0 18 10 NNO - 10 -
04.07.2020 18:00:00 27,0 13,0 21 11 N - 10 -
04.07.2020 17:00:00 27,0 14,4 21 11 N 1015,7 10 0,0
04.07.2020 16:00:00 27,0 16,0 21 11 NNO - 10 -
04.07.2020 15:00:00 27,0 17,0 22 12 NNO - 10 -
04.07.2020 14:00:00 26,7 17,2 21 11 NNO 1016,0 10 -
04.07.2020 13:00:00 27,0 19,0 21 11 NNO - 10 -
04.07.2020 12:00:00 - - - - - - - -
04.07.2020 11:00:00 26,2 19,8 21 11 NNO 1015,9 10 0,0
04.07.2020 10:00:00 24,0 20,0 18 10 NO - 10 -
04.07.2020 09:00:00 25,0 21,0 16 9 NO - 10 -
04.07.2020 08:00:00 23,9 19,2 8 4 ONO 1015,1 10 -
04.07.2020 07:00:00 21,0 19,0 8 4 SSO - 10 -
04.07.2020 06:00:00 20,0 19,0 8 4 S - 10 -
04.07.2020 05:00:00 20,3 18,6 5 3 S 1014,2 10 0,0
04.07.2020 04:00:00 21,0 19,0 8 4 S - 10 -
04.07.2020 03:00:00 20,0 19,0 8 4 S - 10 -
04.07.2020 02:00:00 20,6 18,8 4 2 S 1014,0 10 -
04.07.2020 01:00:00 21,0 19,0 8 4 S - 10 -
04.07.2020 00:00:00 21,0 19,0 4 2 S - 10 -
03.07.2020 23:00:00 21,5 19,2 8 4 SSO 1013,8 10 0,0
03.07.2020 22:00:00 21,0 19,0 9 5 - - 10 -

tt = Temperatura
td = dewpoint
ff = velocità del vento
dd = direzione del vento
ppp = reduced air pressure
vv = visibility
rr = precipitazioni

Stazioni seguenti

WeatherPro
AMSI
MeteoEarth